Aérodrome :
LOGIN :

S'inscrire | Disclaimer

   EN    FR    IT 

 










Légende :    VFR   VFR Marginal   IFR   IFR Intensif   IFR Très Intensif
Visi : 
Plafond : 
>= 8 km
>= 3000ft
5 à 8 km
1000 à 3000 ft
1500m à 5 km
500 à 1000 ft
800 à 1500m
200 à 500 ft
< 800m
< 200 ft
Symboles :   Orages  Brouillard  Fortes neiges  Fortes précipitations  Vent > 20 kt
SIGMETs :   Divers  Orages  Givrage  Turbulence  Onde Orograph.  Cendres Volcan.







- Altitude de l'aérodrome : 117 ft
- Code IATA : NWI
- Voir les cartes d'approche


EGSH - Norwich

DERNIER METAR :
  • 202220Z AUTO 21005KT 9999 NCD 10/09 Q1029

METARs EXPIRÉS :
  • 202150Z 23004KT CAVOK 11/09 Q1029 NOSIG
  • 202120Z 25006KT CAVOK 11/10 Q1029 NOSIG
  • 202050Z 24004KT CAVOK 12/10 Q1029
  • 202020Z 24004KT CAVOK 13/11 Q1030 NOSIG

TAF TAF EGSH
Valide du 20 à 21h jusqu'au 21 à 00h UTC


202001Z 2021/2024 21004KT CAVOK
TEMPO 2021/2024 6000
PROB30 2021/2024 3000 BR MIFG
ATIS : +44 1603 420 640
Pas de NOTAMs connus pour ce terrain.



MET'MAP, la Météo Aéronautique d'un coup d'oeil ! - Copyright ORBIFLY Décembre 2007 - Disclaimer

ORBIFLY MET'MAP TEAM :

Programmation & Développement : Alexandra Zaïnal
Conception & Développement : Baudouin d'Aumeries
Co-Programmation & Développement : Marc-Olivier Méhu
Soutien technique & logistique : Manuel Goepfert

Contact : metmap@orbifly.com




SOURCES & CREDITS :

   NOAA